STARLINK-35199

Satellite information

Favourite Embed

Satellite Type and Status

PAYLOADIN ORBIT

Key statistics

Satellite STARLINK-35199 at a glance.

Uptime

24

Days in orbit

Revolutions

≈ 15.5

Per day

Orbit

LEO

Low Earth Orbit

Inclination

53.2

Latest

Satellite identification and parameters

Extended collection of information and parameters for STARLINK-35199.

Object identification

Identified? True

Debris? False

Object name: STARLINK-35199

International designator: 2025-223E

Object number (NORAD): 65858

Object ID (CCSDS): 65858

Country: UNITED STATES OF AMERICA (US)

Current information (Y/N): Y

Orbital parameters

Period: 92.942 minutes

Inclination: 53.1591 deg

SMA: 6796.777 km

Apoapsis: 419.409 km

Periapsis: 417.875 km

RAAN: 197.9581 deg

Eccentricy: 0.0001128

Argument of periapsis: 99.4023 deg

Mean anomaly: 260.7114 deg

Mean motion: 15.49345293 rev/day

Mean motion (dot): 0.00102896 rev/day2

B* drag term: 0.0018315086 1/REarth

Two-line elements (TLE)

Creation date: Oct. 27, 2025, 2:46 a.m.

Reference frame: TEME

Reference center: EARTH

Epoch: Oct. 26, 2025, 10:55 p.m. UTC

TLE line 0: 0 STARLINK-35199

TLE line 1: 1 65858U 25223E 25299.95542075 .00102896 00000-0 18315-2 0 9996

TLE line 2: 2 65858 53.1591 197.9581 0001128 99.4023 260.7114 15.49345293 3691

Live tracking on map

Real-time ground track for satellite STARLINK-35199.

In-orbit conjunctions

There are no conjunctions computed for STARLINK-35199, at the moment. Check back to stay up to date, as we update our databases every day.

Go to all conjunctions

Associated space launch

A batch of 28 satellites for the Starlink mega-constellation - SpaceX's project for space-based Internet communication system.

STARLINK-35199 was lifted into orbit during the mission ‘Falcon 9 Block 5 | Starlink Group 11-39’, on board a Falcon 9 space rocket.

The launch took place on Oct. 3, 2025, 2:06 p.m. from Space Launch Complex 4E.

For more information about the launch, click the button.

Launch to space Falcon 9 Block 5 | Starlink Group 11-39
Falcon 9 Block 5 | Starlink Group 11-39

Agency: SpaceX

Status: Launch Successful

Launch date: Oct. 3, 2025, 2:06 p.m. UTC

Rocket: Falcon 9

Launch pad: Space Launch Complex 4E

Location: Vandenberg SFB, CA, USA

...

Latest news about this satellite

News about space launch
Live coverage: SpaceX to launch 3rd consecutive Falcon 9 rocket from Vandenberg SFB, uninterrupted by a Cape mission

The Starlink 11-39 mission is scheduled to liftoff from pad 4E at Vandenberg Space Force Base at 6:21 a.m. PDT (9:21 a.m. EDT / 1321 UTC). The Falcon 9 rocket will fly on a south-easterly trajectory.

News about space launch
Launch Roundup: Falcon 9 launches Starlink and Kuiper satellites

SpaceX is scheduled to launch up to three times this week, with each mission planned… The post Launch Roundup: Falcon 9 launches Starlink and Kuiper satellites appeared first on NASASpaceFlight.com.


Newsletter sign-up

Weekly statistics, charts and insights to help you stay on top of the space industry.